Temperature
13 13 13 13 13 13 12 12 12 12 12 12 12 12 12 12 12 12 13 14 15 14 14 14 13 13 14 14 14 13 13 13 11 11 11 11 11 12 12 12 12 12 12
13 13 13 13 13 13 13 13 13 13 13 12 12 12 12 12 12 12 12 12 13 14 14 14 13 13 13 13 13 13 13 13 12 11 11 11 11 11 11 12 12 12 12
14 14 14 14 13 13 13 13 12 12 12 12 12 12 12 12 12 12 12 12 12 13 14 14 14 13 13 13 13 12 12 12 12 12 12 11 11 11 11 11 11 12 12
14 14 14 13 13 13 13 12 12 12 12 12 11 11 11 11 12 12 12 12 12 12 13 13 13 13 13 13 12 12 12 11 11 11 11 11 11 11 11 11 10 10 10
14 13 13 13 12 12 12 12 12 11 11 11 11 11 11 11 11 11 11 11 12 12 12 13 13 13 13 13 12 12 11 11 11 11 11 11 11 11 11 11 11 10 10
13 13 13 13 12 12 12 11 11 10 10 10 10 10 10 10 11 11 11 11 11 11 11 11 11 12 12 12 12 12 12 11 11 11 11 11 11 11 11 11 11 11 11
13 13 12 12 12 11 11 10 10 10 9 9 9 9 10 11 12 12 11 11 11 11 11 11 10 10 11 11 12 12 12 11 11 11 11 11 11 11 11 11 11 11 11
12 12 11 11 11 11 10 10 10 9 9 8 8 8 9 10 11 10 9 10 10 10 10 10 10 10 10 10 10 11 11 11 11 11 11 11 11 11 11 11 11 11 11
11 11 11 11 10 10 9 9 8 7 7 7 7 6 7 8 7 7 8 8 8 9 9 9 9 9 9 9 9 9 10 10 10 10 10 10 10 10 10 10 10 11 11
11 10 10 10 9 9 8 8 7 7 5 5 5 5 5 5 5 6 6 7 7 7 7 7 7 8 8 8 9 9 9 9 9 9 9 9 10 10 10 10 10 10 10
10 10 9 9 8 8 7 7 6 6 5 4 4 4 4 4 4 4 5 5 5 5 5 6 6 6 7 7 7 8 7 7 7 7 7 8 8 9 9 9 10 10 10
9 9 8 8 7 7 6 6 6 5 5 4 4 3 3 3 3 3 3 4 4 4 4 4 5 5 6 6 6 5 5 5 5 5 6 6 7 7 8 8 8 8 9
9 8 7 7 6 6 5 5 5 4 4 3 3 2 2 2 2 2 2 2 2 3 3 3 4 4 4 4 4 4 4 4 4 4 4 5 5 6 6 6 7 7 7
7 7 6 6 5 5 4 4 4 3 2 2 1 1 1 0 0 0 0 0 1 1 2 2 2 2 2 3 3 2 2 2 2 2 3 4 4 4 5 5 6 6 7
6 6 5 5 4 4 4 3 3 2 1 1 0 -0 -0 -0 -1 -1 -1 -1 -1 -0 0 1 1 1 1 1 1 0 0 -0 0 0 1 2 3 4 4 5 5 5 6
5 5 4 4 3 3 3 2 1 1 -0 -0 -1 -1 -1 -1 -2 -2 -2 -2 -2 -2 -1 -1 -1 -1 -1 -1 -1 -1 -1 -1 -1 -1 -0 1 1 2 4 5 5 5 5
4 3 3 3 2 2 2 1 0 -0 -1 -1 -2 -2 -2 -2 -3 -3 -3 -3 -3 -3 -3 -3 -3 -2 -2 -2 -2 -2 -2 -2 -2 -1 -1 -0 -0 1 2 3 4 4 5
3 2 2 2 1 1 1 -0 -1 -2 -2 -2 -2 -3 -3 -3 -4 -4 -4 -4 -4 -4 -4 -4 -4 -3 -3 -3 -3 -3 -3 -3 -2 -2 -2 -1 -1 -0 1 2 3 3 4
2 1 1 1 1 0 -0 -1 -2 -2 -3 -3 -3 -4 -4 -4 -4 -5 -5 -5 -5 -5 -5 -5 -4 -4 -4 -4 -4 -4 -4 -3 -3 -2 -2 -2 -1 -1 0 1 1 2 3
1 1 0 0 -0 -0 -1 -2 -3 -3 -3 -4 -4 -5 -5 -5 -5 -6 -6 -5 -5 -5 -5 -5 -5 -5 -4 -4 -4 -4 -4 -4 -3 -3 -3 -2 -2 -1 -1 -0 1 1 2
0 0 -0 -0 -1 -1 -3 -3 -3 -4 -5 -5 -5 -5 -6 -6 -6 -6 -6 -6 -6 -6 -5 -5 -5 -5 -5 -5 -5 -5 -5 -5 -4 -4 -3 -3 -2 -2 -2 -1 -0 1 1
-0 -0 -1 -2 -2 -3 -3 -3 -4 -5 -6 -6 -6 -6 -6 -6 -6 -6 -6 -6 -6 -6 -6 -6 -6 -6 -6 -6 -6 -6 -6 -6 -5 -4 -4 -4 -4 -3 -3 -3 -2 -1 -0
-1 -1 -2 -3 -3 -4 -4 -5 -6 -7 -7 -7 -7 -7 -7 -6 -7 -7 -7 -6 -6 -6 -7 -7 -7 -7 -7 -7 -7 -7 -6 -6 -5 -5 -5 -5 -4 -4 -4 -3 -3 -2 -1
-2 -3 -4 -4 -5 -5 -6 -7 -7 -8 -7 -7 -7 -7 -7 -7 -7 -7 -7 -7 -7 -7 -7 -8 -8 -8 -8 -8 -8 -7 -7 -7 -6 -5 -5 -5 -5 -5 -4 -4 -3 -2 -1
-3 -4 -4 -5 -6 -6 -7 -8 -8 -8 -8 -7 -7 -7 -7 -7 -7 -7 -7 -7 -8 -8 -8 -9 -9 -9 -9 -9 -8 -8 -7 -7 -6 -6 -6 -6 -6 -5 -5 -5 -3 -2 -1
-4 -5 -5 -6 -7 -7 -8 -9 -9 -8 -8 -8 -7 -7 -7 -7 -7 -7 -7 -8 -8 -9 -9 -9 -9 -9 -9 -9 -9 -8 -8 -8 -8 -7 -7 -6 -6 -6 -6 -5 -3 -2 -1
Wind_Speed
5 6 6 6 7 8 7 7 9 10 11 12 12 13 15 16 16 16 15 18 23 26 27 28 28 29 30 31 32 33 33 33 34 34 34 33 33 33 33 33 33 32 32
5 6 7 7 7 7 7 8 10 10 10 10 12 14 15 16 16 17 17 17 20 25 28 30 30 30 31 32 33 34 34 34 35 35 35 36 36 35 36 35 35 35 35
6 6 6 6 7 8 9 8 10 9 9 10 12 14 13 15 16 17 17 16 17 19 26 30 31 31 32 33 34 34 35 35 35 35 35 36 37 37 38 38 38 38 37
5 5 5 6 7 7 6 7 8 9 10 10 11 12 12 13 17 17 16 16 15 16 17 23 28 30 32 33 34 35 36 35 34 34 35 35 36 38 40 40 40 39 39
6 5 5 6 7 6 6 7 8 9 10 11 11 12 13 13 15 15 16 17 16 16 16 16 20 25 29 32 33 35 35 35 33 33 35 36 35 37 40 41 41 41 41
12 9 7 9 9 7 8 9 10 10 10 11 12 13 13 15 15 15 16 15 14 16 17 18 16 15 22 27 30 32 33 34 34 34 35 36 37 37 39 41 41 42 43
12 10 7 8 9 8 8 10 9 12 10 11 13 14 15 15 14 12 13 15 17 18 19 18 15 14 12 17 22 26 29 31 33 35 36 38 39 41 43 44 44 44 45
12 9 9 7 8 7 8 9 10 9 9 11 12 14 12 14 12 14 17 17 18 18 17 17 17 17 16 14 13 18 24 28 31 33 34 36 38 39 42 44 46 46 46
11 10 9 8 8 8 8 10 11 11 11 12 11 10 11 12 19 14 16 16 18 18 18 19 21 21 21 18 17 18 20 25 30 32 34 35 36 38 40 41 43 44 45
10 10 10 9 8 8 9 10 10 10 10 11 11 10 12 16 15 18 15 16 19 20 20 19 21 22 23 21 19 19 20 25 32 33 34 35 35 36 37 38 40 42 43
9 10 9 8 8 8 9 10 10 10 8 10 10 11 13 13 16 17 21 20 17 17 18 20 20 20 21 21 19 20 22 25 29 31 33 34 34 34 33 33 33 35 39
6 10 9 8 8 8 8 9 9 10 9 11 10 10 11 12 14 16 20 22 20 19 19 18 18 18 17 16 18 18 26 28 29 30 31 32 32 31 30 29 30 30 31
6 9 9 9 8 8 9 9 10 10 10 11 11 11 12 13 14 15 17 20 23 21 21 18 17 17 16 16 16 18 23 28 30 31 32 33 33 31 29 28 29 30 32
6 8 8 9 9 9 10 10 9 10 10 11 13 13 12 13 13 14 16 18 21 22 21 24 18 19 18 19 18 18 22 28 32 32 34 35 34 31 30 29 28 28 29
6 8 9 9 10 10 10 11 9 11 11 12 13 14 13 13 13 14 15 16 18 22 23 25 22 22 19 20 20 21 24 30 34 34 34 34 32 30 30 29 28 27 27
7 9 10 10 11 11 11 11 11 11 13 14 13 15 16 14 14 15 15 16 16 18 22 22 22 24 24 21 25 25 26 32 32 31 33 33 30 31 33 32 29 27 26
8 9 10 11 11 12 12 12 13 14 15 16 16 17 18 18 16 16 16 16 16 17 20 21 21 23 28 27 25 24 23 23 22 31 32 32 32 33 33 31 29 27 26
8 9 10 11 11 12 13 14 15 15 17 18 18 18 19 17 20 18 16 17 17 18 18 22 22 23 27 26 26 26 23 21 22 28 32 32 32 32 32 31 27 24 24
9 9 10 11 12 13 14 14 15 17 18 18 19 19 20 20 20 18 19 18 17 17 18 20 22 21 21 22 25 25 26 22 22 22 27 28 29 30 30 29 28 25 23
9 10 11 12 12 14 14 15 17 18 19 19 19 18 19 19 20 21 19 19 19 20 21 20 20 20 21 23 22 21 22 20 20 20 22 23 26 27 26 27 28 24 20
9 10 12 12 13 13 13 17 18 19 20 20 19 18 19 20 23 21 19 20 21 19 20 19 19 21 22 22 21 21 21 21 22 20 18 17 17 17 19 23 25 24 22
10 11 12 14 14 13 17 22 21 19 19 19 19 19 19 20 21 26 27 28 27 23 22 20 20 23 26 25 22 21 21 22 21 17 17 19 18 18 18 18 24 28 27
11 13 14 15 16 17 20 22 23 20 19 18 19 19 17 18 23 21 25 28 26 26 26 23 25 25 26 24 25 25 23 24 23 19 18 20 18 17 17 18 28 31 31
12 14 15 16 16 17 20 22 25 20 18 18 18 20 20 21 20 24 24 23 21 23 26 23 22 24 24 25 24 24 24 24 22 18 16 18 17 16 17 16 25 28 27
14 14 15 16 17 18 19 22 23 17 16 19 19 20 21 22 26 30 24 22 25 24 25 29 30 30 32 32 26 19 19 18 19 16 13 14 16 16 15 15 18 20 20
14 15 15 15 16 17 19 21 23 15 17 18 18 20 23 24 28 30 23 24 25 25 25 26 25 24 23 23 25 18 16 17 18 16 12 10 13 12 10 9 8 10 14
Wind_Direction
287 298 297 300 296 296 294 293 293 294 290 286 281 279 277 275 271 269 268 249 246 253 256 256 255 254 253 252 251 250 251 252 249 244 242 242 241 241 241 240 240 240 239
296 300 296 294 294 296 298 296 297 295 291 289 286 283 280 278 274 273 272 267 244 246 251 253 253 253 253 253 251 250 250 250 250 249 245 242 240 240 240 240 240 239 239
294 296 298 304 311 315 313 308 307 302 299 298 294 291 289 286 283 281 278 275 270 251 247 252 254 252 251 250 251 251 250 250 248 248 247 245 241 238 238 238 239 239 239
324 319 322 330 337 332 327 324 319 314 310 307 304 302 297 293 287 283 282 278 276 273 263 253 255 257 258 257 255 253 251 250 248 247 247 248 245 241 239 238 238 239 239
30 27 18 9 3 359 354 345 332 324 316 312 306 301 296 290 286 284 281 280 279 276 275 269 254 253 257 259 260 260 258 255 251 248 246 247 247 245 243 241 240 239 238
51 48 43 29 19 15 6 354 342 332 320 319 312 303 299 293 286 285 288 288 285 283 281 280 276 262 252 257 260 262 263 263 260 257 253 249 247 246 245 244 243 241 240
47 42 32 26 16 11 0 350 341 333 329 330 318 313 303 293 296 299 307 304 298 294 289 286 284 281 274 262 260 262 264 264 265 264 262 258 255 252 249 247 245 243 243
40 34 28 20 12 358 355 351 348 337 329 332 326 321 315 310 305 319 305 298 301 301 299 298 293 288 284 281 274 266 267 269 270 271 269 266 262 259 256 253 250 247 245
37 32 24 15 7 1 356 351 350 343 334 331 336 324 320 316 318 304 314 313 309 307 306 304 301 297 290 282 278 270 261 265 271 273 275 274 272 267 263 259 256 253 250
33 24 19 13 7 3 359 354 352 342 337 334 332 325 315 312 311 311 309 311 314 309 306 304 302 301 298 295 288 275 264 265 275 278 278 277 275 274 270 265 261 258 254
28 19 13 11 8 4 0 352 345 343 338 333 329 322 317 314 312 311 309 310 305 301 301 299 297 295 295 296 298 309 337 325 311 302 294 288 284 282 281 280 278 272 263
18 17 10 11 8 1 353 345 337 337 334 330 324 318 315 311 310 307 304 306 305 303 301 297 295 295 299 305 309 334 340 330 325 320 314 309 301 296 292 291 292 296 297
12 7 4 359 356 350 343 339 331 328 326 325 317 316 312 308 307 305 303 304 305 304 302 298 298 301 304 304 302 333 325 318 317 316 316 315 313 309 305 300 295 293 294
1 354 350 346 344 341 337 334 324 324 321 319 315 313 309 307 306 305 305 305 304 304 303 301 305 306 305 303 303 323 309 310 308 309 310 307 305 303 301 299 297 291 286
348 345 343 340 337 335 332 327 321 322 319 316 313 310 308 306 304 305 305 302 302 301 300 303 306 305 306 301 303 306 305 302 301 301 300 298 297 300 300 298 296 295 290
347 340 338 335 331 327 325 322 318 316 314 312 309 307 308 306 306 305 302 300 296 294 295 298 302 303 305 301 301 303 299 299 297 298 298 294 295 298 296 295 295 294 292
341 337 333 326 323 322 323 321 318 317 313 311 311 310 310 308 305 303 301 298 296 296 294 295 298 302 303 302 301 300 298 298 297 295 294 295 294 291 290 289 289 289 290
338 332 324 318 319 321 323 320 317 315 313 312 312 311 309 309 305 303 302 301 300 298 297 298 299 301 302 304 304 304 302 298 294 293 293 292 290 288 287 285 286 289 290
330 324 320 318 319 321 320 317 316 314 312 310 310 310 309 308 306 307 307 303 300 300 298 296 298 300 301 304 305 302 300 297 295 294 293 291 291 290 290 288 289 289 288
322 320 318 316 317 318 314 318 318 313 310 309 308 307 308 308 309 310 307 304 304 303 301 299 299 302 303 304 303 301 301 300 299 299 295 292 291 292 293 295 292 286 281
313 311 310 313 316 316 318 323 316 312 310 308 307 308 308 308 306 305 305 306 306 303 302 301 303 306 305 305 302 302 300 301 300 298 298 296 296 296 295 293 289 281 273
308 309 310 315 316 314 319 316 314 312 310 308 310 311 311 308 309 308 307 306 306 304 304 304 306 305 303 301 301 300 300 298 297 298 300 298 295 291 289 287 285 285 281
311 311 313 316 315 315 316 316 317 315 309 310 312 312 311 310 311 310 310 310 309 306 306 306 304 302 300 300 300 300 297 295 292 295 299 292 291 288 289 288 289 285 282
312 311 312 313 313 313 317 320 320 316 313 313 313 311 309 310 311 313 313 311 311 312 309 306 302 300 298 298 297 296 295 292 289 287 286 288 294 293 293 292 291 285 281
310 311 312 314 314 315 320 322 321 318 315 314 312 309 309 308 311 316 316 313 314 314 313 308 305 302 301 300 299 299 298 297 296 295 296 292 294 295 295 293 287 292 297
308 311 310 313 313 315 318 320 322 319 317 316 312 310 308 309 314 318 316 314 314 315 314 312 310 309 306 303 302 300 301 299 298 297 299 294 295 302 300 289 303 316 315
Height
1501 1500 1498 1497 1495 1494 1492 1490 1488 1486 1484 1482 1480 1477 1475 1473 1469 1466 1462 1459 1457 1455 1453 1451 1449 1448 1446 1446 1445 1445 1445 1446 1446 1447 1447 1447 1448 1448 1449 1450 1450 1451 1452
1497 1497 1496 1494 1493 1491 1489 1487 1485 1482 1480 1477 1474 1472 1469 1467 1463 1460 1456 1453 1449 1447 1445 1443 1441 1439 1438 1436 1435 1435 1435 1436 1437 1438 1438 1439 1439 1439 1440 1441 1441 1442 1443
1495 1494 1493 1492 1490 1488 1485 1483 1481 1478 1475 1472 1469 1467 1464 1460 1457 1454 1450 1447 1443 1439 1436 1434 1433 1431 1430 1428 1426 1425 1425 1425 1425 1426 1427 1428 1428 1429 1429 1430 1431 1432 1433
1493 1492 1490 1489 1486 1484 1482 1480 1477 1474 1471 1467 1464 1461 1457 1454 1450 1447 1443 1440 1437 1433 1430 1427 1425 1423 1421 1419 1417 1415 1414 1414 1413 1414 1415 1416 1417 1418 1418 1419 1420 1422 1424
1491 1490 1488 1486 1484 1482 1480 1477 1474 1472 1468 1464 1460 1456 1452 1448 1444 1441 1437 1433 1430 1426 1423 1420 1417 1414 1413 1411 1408 1406 1405 1404 1403 1403 1403 1403 1404 1405 1406 1408 1409 1410 1411
1490 1489 1487 1485 1483 1481 1478 1476 1473 1470 1466 1462 1457 1452 1448 1444 1440 1436 1433 1429 1425 1421 1417 1413 1410 1406 1404 1402 1400 1398 1396 1394 1393 1392 1391 1391 1390 1391 1392 1394 1396 1397 1398
1490 1489 1487 1485 1482 1479 1476 1473 1469 1465 1462 1457 1452 1446 1442 1439 1435 1432 1428 1424 1420 1417 1413 1408 1404 1400 1396 1393 1390 1388 1386 1384 1382 1381 1379 1378 1378 1378 1378 1380 1381 1382 1384
1490 1489 1486 1483 1480 1477 1473 1469 1465 1460 1457 1454 1449 1442 1435 1432 1429 1426 1422 1418 1414 1410 1406 1402 1398 1394 1389 1385 1381 1379 1377 1375 1372 1370 1368 1366 1365 1364 1364 1365 1366 1367 1369
1489 1487 1484 1480 1477 1473 1470 1466 1462 1458 1454 1452 1449 1445 1437 1427 1423 1418 1416 1413 1408 1404 1400 1396 1392 1388 1384 1379 1375 1371 1368 1365 1362 1360 1357 1354 1352 1350 1350 1350 1351 1352 1353
1488 1485 1481 1477 1473 1470 1466 1463 1460 1456 1452 1449 1445 1442 1439 1432 1423 1412 1410 1407 1403 1398 1394 1389 1384 1380 1376 1372 1368 1364 1360 1356 1353 1349 1346 1343 1340 1338 1337 1336 1337 1337 1338
1485 1481 1477 1474 1470 1467 1464 1461 1458 1454 1450 1446 1443 1438 1434 1429 1423 1414 1402 1397 1395 1391 1387 1382 1376 1372 1367 1363 1360 1357 1349 1343 1341 1338 1335 1331 1329 1327 1325 1323 1322 1322 1323
1482 1478 1475 1472 1469 1466 1462 1459 1455 1451 1447 1443 1439 1435 1430 1425 1419 1411 1400 1390 1384 1381 1377 1373 1368 1364 1359 1355 1350 1344 1337 1334 1331 1328 1324 1321 1318 1315 1313 1310 1308 1306 1305
1481 1477 1474 1470 1467 1463 1460 1456 1452 1448 1443 1439 1434 1430 1425 1420 1414 1408 1399 1388 1379 1372 1368 1364 1361 1357 1352 1347 1342 1336 1330 1326 1323 1319 1315 1311 1308 1305 1302 1300 1297 1296 1295
1478 1475 1471 1467 1464 1460 1456 1452 1448 1443 1438 1434 1429 1424 1419 1414 1409 1404 1397 1388 1376 1365 1359 1355 1353 1350 1346 1341 1335 1328 1323 1318 1314 1310 1305 1301 1298 1295 1293 1291 1289 1288 1287
1475 1472 1468 1465 1461 1456 1452 1447 1443 1438 1434 1429 1424 1419 1414 1409 1404 1398 1393 1387 1378 1365 1353 1347 1344 1341 1338 1333 1327 1321 1315 1309 1304 1300 1295 1291 1288 1285 1282 1280 1278 1277 1276
1472 1469 1465 1461 1457 1452 1447 1442 1438 1433 1429 1424 1419 1413 1408 1403 1398 1392 1386 1380 1374 1365 1352 1343 1337 1332 1328 1323 1318 1313 1306 1300 1294 1289 1285 1281 1277 1273 1270 1268 1266 1265 1265
1468 1465 1461 1457 1453 1448 1443 1437 1433 1428 1423 1418 1413 1408 1402 1396 1390 1384 1378 1372 1365 1359 1349 1338 1332 1325 1319 1313 1308 1303 1297 1290 1284 1279 1274 1270 1266 1263 1259 1257 1255 1254 1253
1464 1461 1457 1453 1449 1443 1438 1432 1427 1422 1417 1412 1406 1400 1394 1389 1382 1376 1370 1364 1358 1351 1344 1334 1325 1319 1312 1305 1299 1293 1287 1281 1274 1268 1264 1259 1255 1252 1249 1247 1245 1243 1241
1461 1457 1454 1449 1444 1438 1432 1426 1421 1416 1411 1405 1399 1393 1387 1381 1375 1369 1363 1357 1350 1344 1337 1329 1319 1312 1305 1298 1291 1283 1277 1271 1265 1260 1254 1250 1246 1242 1239 1236 1234 1232 1230
1458 1454 1450 1445 1439 1432 1426 1421 1415 1409 1403 1398 1392 1386 1380 1374 1368 1362 1356 1350 1343 1337 1330 1322 1313 1306 1298 1291 1284 1275 1267 1262 1256 1251 1245 1241 1236 1232 1229 1226 1224 1222 1221
1453 1449 1444 1438 1432 1427 1421 1415 1408 1401 1395 1389 1384 1379 1373 1367 1361 1356 1350 1343 1337 1330 1323 1315 1307 1299 1291 1284 1277 1269 1261 1253 1246 1242 1236 1231 1227 1223 1219 1216 1213 1211 1211
1448 1444 1438 1432 1426 1420 1414 1407 1401 1394 1388 1382 1376 1370 1365 1360 1354 1349 1343 1337 1332 1324 1316 1309 1301 1294 1285 1277 1269 1262 1255 1246 1236 1234 1230 1222 1219 1213 1209 1206 1202 1200 1200
1443 1437 1432 1426 1419 1413 1406 1399 1393 1387 1381 1376 1370 1364 1358 1353 1348 1341 1335 1329 1323 1317 1312 1306 1296 1287 1278 1270 1263 1255 1248 1240 1231 1226 1223 1212 1209 1204 1200 1196 1193 1190 1188
1437 1431 1425 1418 1412 1406 1399 1392 1385 1380 1375 1370 1365 1359 1353 1347 1341 1335 1327 1320 1313 1309 1304 1296 1289 1279 1271 1263 1257 1249 1240 1230 1222 1219 1216 1207 1201 1197 1192 1188 1183 1180 1179
1430 1424 1418 1411 1405 1399 1393 1386 1380 1374 1368 1363 1359 1354 1348 1342 1336 1329 1321 1312 1305 1298 1292 1285 1278 1270 1261 1254 1248 1241 1232 1224 1215 1210 1209 1203 1195 1190 1185 1179 1175 1172 1170
1424 1418 1412 1405 1399 1393 1387 1381 1376 1370 1364 1358 1353 1348 1342 1336 1329 1322 1315 1307 1298 1289 1281 1272 1266 1258 1251 1245 1240 1235 1227 1219 1209 1202 1201 1197 1190 1186 1178 1173 1169 1165 1162